Tracking 19570 objects as of 21-Feb-2019
HD Live streaming from Space Station
objects crossing your sky now

SL-16 DEB

Track SL-16 DEB now!
10-day predictions


NORAD ID: 22609
Int'l Code: 1993-016T
Perigee: 846.6 km
Apogee: 1,045.4 km
Inclination: 71.0 °
Period: 103.8 minutes
Semi major axis: 7316 km
RCS: 0.0177 m2 (small)
Launch date: March 26, 1993
Source: Commonwealth of Independent States (former USSR) (CIS)
Launch site: TYURATAM MISSILE AND SPACE COMPLEX (TTMTR)

Note: This is SATELLITE DEBRIS
aabbcc
Your satellite tracking list
Your tracking list is empty




NASA's NSSDC Master Catalog

Two Line Element Set (TLE):
1 22609U 93016T   19051.86757329 +.00000049 +00000-0 +73538-4 0  9994
2 22609 070.9927 084.0983 0135878 093.9952 325.9232 13.87090945309189
Source of the keplerian elements: AFSPC